カタログに戻る

CZ-3C DEB

LostHEO
NORAD 44526·DEBRIS·🇨🇳 China

打ち上げ Oct 31, 2010 から Xichang Satellite Launch Center

Loading…

次のパス (今後24時間)

TLE

古いSource: Space-Track

元期: Dec 14, 2025, 22:35 UTC

1 44526U 10057BL  25348.94118097  .00000166  00000-0  89110-3 0  9990
2 44526  21.4546 161.4389 6980678 192.6332 130.9564  2.49206901 91660

AllMySatでCZ-3C DEBをリアルタイム追跡

Download on the App Store